[[{"header":{"parameterUnit":"m.s-1","parameterCategory":1,"la1":30.2991,"la2":30.254,"lo1":-89.0895,"lo2":-89.0444,"dy":0.0017,"dx":0.0017,"nx":28,"ny":28,"refTime":"2026-02-13T03:00:00:Z","depth":0,"parameterNumber":2,"parameterNumberName":"U-component_of_WINDS"},"data":[0,0,0,0,0,0,0,0,0,0,0,0,0,0,0,0,0,0,0,0,0,0,0,0,0,0,0,0,0,0,0,0,0,0,0,0,0,0,0,0,0,0,0,0,0,0,0,0,0,0,0,0,0,0,0,0,0,0,-4.4892,-4.4893,0,-4.4998,-4.5,-4.5001,-4.4992,-4.499,-4.4989,-4.4987,-4.5095,-4.5099,-4.5104,0,0,0,0,0,0,0,0,0,0,0,0,0,-4.468,-4.4684,-4.4892,-4.4893,-4.4895,-4.4998,-4.5,-4.5001,-4.4992,-4.499,-4.4988,-4.4986,-4.5094,-4.5099,-4.5104,0,0,0,0,0,0,0,0,0,0,0,0,0,-4.4778,-4.4685,-4.4892,-4.4903,-4.4905,-4.4998,-4.5,-4.5002,-4.4993,-4.499,-4.4988,-4.4985,-4.5092,-4.5098,-4.5105,-4.5194,0,0,-4.5125,-4.5128,0,0,0,0,0,0,0,0,-4.4772,-4.4786,-4.49,-4.4902,-4.4904,-4.4979,-4.4965,-4.5066,-4.4993,-4.4959,-4.4987,-4.4984,-4.5059,-4.5068,-4.5093,-4.5199,-4.5204,-4.5126,-4.513,-4.5132,-4.5134,0,0,0,0,0,0,0,-4.4766,-4.4781,-4.4934,-4.4901,-4.4904,-4.4902,-4.4913,-4.4984,-4.5021,-4.4962,-4.4961,-4.4974,-4.5059,-4.5087,-4.5095,-4.5205,-4.5125,-4.5131,-4.5135,-4.5138,-4.539,-4.5393,0,0,0,0,0,0,-4.4756,-4.4775,-4.4931,-4.4937,-4.4831,-4.4908,-4.492,-4.4958,-4.502,-4.5028,-4.4976,-4.4973,-4.5077,-4.5088,-4.5099,-4.5207,-4.5132,-4.5138,-4.5142,-4.5387,-4.5391,-4.5394,0,0,0,0,0,0,-4.4752,-4.477,-4.4926,-4.4856,-4.4876,-4.4914,-4.4956,-4.4961,-4.4988,-4.5031,-4.5038,-4.4997,-4.5075,-4.509,-4.5171,-4.5211,-4.5141,-4.5147,-4.5384,-4.5388,-4.5392,-4.5425,0,0,0,0,0,0,-4.4746,-4.4769,-4.4803,-4.4857,-4.488,-4.4996,-4.4959,-4.4965,-4.5,-4.4997,-4.5053,-4.5059,-4.5074,-4.5161,-4.5177,-4.5219,-4.5153,-4.5381,-4.5386,-4.5391,-4.542,-4.5429,-4.5437,0,0,0,0,0,-4.4738,-4.4807,-4.4805,-4.4823,-4.4923,-4.4998,-4.5011,-4.5027,-4.5003,-4.5038,-4.5065,-4.5058,-4.5204,-4.5169,-4.5187,-4.5232,-4.5378,-4.5385,-4.5391,-4.5416,-4.5428,-4.5437,0,0,0,0,0,0,-4.4756,-4.4815,-4.4812,-4.4901,-4.4945,-4.4997,-4.5041,-4.5039,-4.509,-4.5085,-4.5103,-4.5115,-4.5197,-4.5222,-4.5182,-4.5322,-4.5288,-4.5298,-4.5301,-4.5312,-4.5321,-4.5312,-4.5158,0,0,0,0,0,-4.4771,-4.4827,-4.4875,-4.4949,-4.4971,-4.5002,-4.5036,-4.5044,-4.509,-4.5108,-4.5142,-4.5187,-4.5243,-4.5279,-4.5333,-4.5424,-4.5436,-4.5464,-4.5473,-4.5479,-4.5488,-4.5538,-4.5551,-4.5414,-4.5414,-4.5414,0,0,-4.4801,-4.484,-4.4874,-4.4954,-4.4988,-4.5046,-4.5018,-4.508,-4.5123,-4.5118,-4.5196,-4.5222,-4.5273,-4.536,-4.5399,-4.5384,-4.5528,-4.5487,-4.5493,-4.5497,-4.5545,-4.5558,-4.557,-4.5418,-4.5418,-4.5417,0,0,-4.4885,-4.492,-4.4986,-4.5022,-4.5075,-4.5096,-4.5112,-4.5164,-4.5182,-4.5261,-4.5258,-4.531,-4.5406,-4.5442,-4.5474,-4.5573,-4.5568,-4.559,-4.5635,-4.5684,-4.5694,-4.5704,-4.5739,-4.5751,-4.5599,-4.5599,-4.5599,0,-4.4915,-4.5002,-4.5019,-4.5082,-4.5117,-4.5117,-4.5183,-4.5217,-4.5285,-4.5309,-4.5291,-4.5412,-4.5447,-4.5541,-4.5566,-4.5591,-4.561,-4.5583,-4.5691,-4.5701,-4.571,-4.5744,-4.5757,-4.5601,-4.5601,-4.5601,-4.56,0,-4.5037,-4.5097,-4.5144,-4.521,-4.5251,-4.5315,-4.5342,-4.5381,-4.5386,-4.5409,-4.549,-4.5531,-4.5593,-4.5617,-4.5623,-4.5713,-4.5702,-4.5688,-4.5654,-4.5725,-4.5757,-4.577,-4.5604,-4.5604,-4.5603,-4.5602,0,0,-4.5133,-4.521,-4.5226,-4.5257,-4.5317,-4.5364,-4.5428,-4.549,-4.5523,-4.557,-4.5625,-4.5707,-4.5695,-4.573,-4.574,-4.5783,-4.5859,-4.5764,-4.5765,-4.5779,-4.5961,-4.597,-4.5985,-4.5857,-4.5859,-4.5861,-4.5956,0,-4.5223,-4.5337,-4.5355,-4.5455,-4.5511,-4.5512,-4.5569,-4.5611,-4.5635,-4.5685,-4.5711,-4.5769,-4.5748,-4.577,-4.5813,-4.5841,-4.5896,-4.5834,-4.5907,-4.5909,-4.5893,-4.6001,-4.6011,-4.6099,-4.5969,-4.5971,-4.5972,0,-4.5342,-4.5393,-4.5499,-4.5552,-4.5576,-4.5627,-4.5685,-4.5734,-4.5782,-4.5796,-4.5837,-4.5842,-4.5909,-4.5874,-4.5967,-4.5925,-4.5956,-4.5975,-4.5978,-4.5984,-4.5944,-4.6009,-4.6127,-4.6139,-4.5992,-4.5991,-4.5989,0,-4.54,-4.5496,-4.5572,-4.5599,-4.5662,-4.5698,-4.5726,-4.5772,-4.5808,-4.586,-4.5883,-4.5942,-4.5973,-4.6018,-4.6039,-4.6012,-4.6131,-4.6097,-4.6144,-4.6143,-4.6167,-4.6165,-4.629,-4.6189,-4.6189,-4.6189,-4.6188,0,-4.5497,-4.5562,-4.56,-4.5646,-4.5719,-4.5739,-4.5811,-4.5838,-4.588,-4.5931,-4.5936,-4.5985,-4.601,-4.6063,-4.608,-4.6154,-4.6169,-4.6181,-4.6185,-4.618,-4.6179,-4.62,-4.6194,-4.6192,-4.6191,-4.6191,-4.619,0,-4.5574,-4.5602,-4.5685,-4.5739,-4.5754,-4.5805,-4.5852,-4.5897,-4.5921,-4.5986,-4.6003,-4.604,-4.6102,-4.6128,-4.6204,-4.6216,-4.6301,-4.63,-4.6284,-4.6285,-4.6329,-4.6324,-4.6471,-4.6491,-4.6378,-4.6379,-4.638,0,-4.5634,-4.5684,-4.5744,-4.5779,-4.5808,-4.5865,-4.5902,-4.5925,-4.5963,-4.6024,-4.6062,-4.6124,-4.6175,-4.6274,-4.6308,-4.6366,-4.6367,-4.6414,-4.6375,-4.6369,-4.6366,-4.6362,-4.6367,-4.6421,-4.6422,-4.6423,-4.6423,0,-4.5736,-4.5748,-4.5801,-4.586,-4.5905,-4.5952,-4.5998,-4.6027,-4.6057,-4.61,-4.6164,-4.6203,-4.6282,-4.6343,-4.6404,-4.6433,-4.6433,-4.6436,-4.6449,-4.6444,-4.6432,-4.6439,-4.6302,-4.6432,-4.6431,-4.643,-4.643,-4.643,-4.5805,-4.585,-4.5899,-4.5959,-4.5996,-4.604,-4.6085,-4.6115,-4.6168,-4.6234,-4.6245,-4.6313,-4.6361,-4.6443,-4.6475,-4.6528,-4.6516,-4.6536,-4.6541,-4.6545,-4.6548,-4.6425,-4.654,-4.6539,-4.6539,-4.6539,-4.6539,0,-4.5906,-4.5939,-4.5994,-4.6059,-4.6106,-4.6103,-4.6154,-4.6194,-4.6254,-4.6299,-4.635,-4.6423,-4.6484,-4.6523,-4.6584,-4.6619,-4.6621,-4.6634,-4.6631,-4.6638,-4.6555,-4.6537,-4.6632,-4.6632,-4.6632,-4.6632,-4.6632,-4.6632,-4.5965,-4.604,-4.6057,-4.6151,-4.6183,-4.625,-4.628,-4.632,-4.6356,-4.6438,-4.6489,-4.6514,-4.6557,-4.6622,-4.6677,-4.6687,-4.6709,-4.6723,-4.6732,-4.6653,-4.6644,-4.6634,-4.6617,-4.6728,-4.6728,-4.681,-4.6811,-4.6811]},{"header":{"parameterUnit":"m.s-1","parameterCategory":1,"la1":30.2991,"la2":30.254,"lo1":-89.0895,"lo2":-89.0444,"dy":0.0017,"dx":0.0017,"nx":28,"ny":28,"refTime":"2026-02-13T03:00:00:Z","depth":0,"parameterNumber":3,"parameterNumberName":"V-component_of_WINDS"},"data":[0,0,0,0,0,0,0,0,0,0,0,0,0,0,0,0,0,0,0,0,0,0,0,0,0,0,0,0,0,0,0,0,0,0,0,0,0,0,0,0,0,0,0,0,0,0,0,0,0,0,0,0,0,0,0,0,0,0,2.4885,2.4888,0,2.5156,2.5159,2.5162,2.5313,2.5314,2.5314,2.5314,2.5591,2.5598,2.5605,0,0,0,0,0,0,0,0,0,0,0,0,0,2.4498,2.4504,2.4884,2.4888,2.4891,2.5156,2.5159,2.5163,2.5313,2.5314,2.5314,2.5315,2.5589,2.5597,2.5606,0,0,0,0,0,0,0,0,0,0,0,0,0,2.4707,2.4506,2.4884,2.4998,2.5011,2.5155,2.516,2.5164,2.5313,2.5314,2.5314,2.5315,2.5586,2.5596,2.5607,2.5658,0,0,2.5639,2.5643,0,0,0,0,0,0,0,0,2.4695,2.4721,2.4978,2.499,2.5005,2.5202,2.5125,2.533,2.5313,2.5198,2.5314,2.5315,2.5461,2.5482,2.5531,2.5671,2.5683,2.5639,2.5646,2.565,2.5653,0,0,0,0,0,0,0,2.468,2.471,2.4992,2.4981,2.4998,2.5036,2.5067,2.5164,2.5322,2.5208,2.522,2.525,2.5469,2.5521,2.5539,2.5687,2.5639,2.5648,2.5655,2.5659,2.5886,2.5886,0,0,0,0,0,0,2.4647,2.4697,2.4983,2.5,2.4849,2.5043,2.5077,2.5138,2.5322,2.5351,2.5249,2.5256,2.5503,2.5526,2.5549,2.5624,2.565,2.566,2.5666,2.5886,2.5886,2.5886,0,0,0,0,0,0,2.4638,2.4671,2.4973,2.4852,2.4893,2.5049,2.5116,2.5143,2.5195,2.5353,2.5382,2.5273,2.5504,2.5534,2.5631,2.5636,2.5665,2.5674,2.5886,2.5886,2.5886,2.5772,0,0,0,0,0,0,2.4627,2.4667,2.4688,2.4851,2.4899,2.5049,2.5116,2.5148,2.5213,2.5225,2.5383,2.541,2.5507,2.5614,2.5641,2.5651,2.5682,2.5887,2.5886,2.5886,2.5776,2.5768,2.5761,0,0,0,0,0,2.4612,2.4644,2.4688,2.4722,2.4928,2.5049,2.5076,2.5187,2.5213,2.5235,2.5337,2.5405,2.563,2.5623,2.5654,2.5667,2.5887,2.5886,2.5886,2.578,2.577,2.5761,0,0,0,0,0,0,2.4476,2.4667,2.4718,2.4804,2.4909,2.5074,2.5106,2.5172,2.5272,2.5279,2.5412,2.5447,2.5531,2.5609,2.5597,2.5728,2.5766,2.5772,2.5675,2.5667,2.5659,2.5639,2.5691,0,0,0,0,0,2.4456,2.4538,2.4701,2.476,2.4811,2.4948,2.5005,2.5082,2.5196,2.5241,2.535,2.5458,2.5554,2.5614,2.5711,2.5788,2.5826,2.5812,2.5805,2.5798,2.5802,2.5852,2.5848,2.5884,2.5884,2.5884,0,0,2.4415,2.453,2.4573,2.4736,2.4827,2.491,2.4985,2.5069,2.5132,2.5254,2.5353,2.5436,2.5566,2.5653,2.5698,2.5721,2.58,2.5797,2.579,2.5799,2.5851,2.5847,2.5844,2.5884,2.5884,2.5884,0,0,2.4385,2.4478,2.454,2.463,2.4766,2.4859,2.4873,2.5029,2.5089,2.519,2.5285,2.5362,2.5523,2.5613,2.5679,2.5685,2.5752,2.5712,2.5673,2.572,2.5717,2.5716,2.5721,2.572,2.5715,2.5715,2.5715,0,2.4317,2.4446,2.4563,2.4643,2.4713,2.4828,2.4893,2.4974,2.5134,2.518,2.5204,2.5411,2.5506,2.5618,2.562,2.5669,2.5691,2.5695,2.5708,2.5708,2.5708,2.5714,2.5715,2.5709,2.571,2.571,2.5711,0,2.4357,2.4445,2.4479,2.4633,2.4706,2.4777,2.4907,2.4967,2.5038,2.5127,2.523,2.5349,2.5473,2.5505,2.5573,2.5627,2.5638,2.5683,2.5724,2.5697,2.5705,2.5708,2.5701,2.5703,2.5705,2.5706,0,0,2.4248,2.4468,2.4478,2.4551,2.4711,2.4782,2.4859,2.4981,2.5032,2.5139,2.5209,2.5344,2.5387,2.5463,2.5543,2.5584,2.5585,2.5625,2.563,2.5616,2.5655,2.5622,2.5622,2.5629,2.563,2.5631,2.5645,0,2.4243,2.4388,2.4497,2.4601,2.4685,2.4796,2.4864,2.497,2.5056,2.5141,2.5236,2.5331,2.538,2.5427,2.5472,2.5574,2.5595,2.5575,2.5697,2.57,2.5664,2.5626,2.5591,2.5599,2.5649,2.5649,2.565,0,2.4256,2.4361,2.4473,2.4627,2.4666,2.4725,2.4848,2.4927,2.505,2.511,2.5195,2.5278,2.5367,2.5398,2.5523,2.5507,2.5564,2.5622,2.5625,2.5642,2.5675,2.5645,2.5603,2.5605,2.5655,2.5655,2.5654,0,2.4168,2.4337,2.4428,2.4486,2.4667,2.4707,2.4784,2.4908,2.4975,2.5082,2.5128,2.5242,2.5306,2.5393,2.5506,2.5518,2.562,2.566,2.5674,2.5671,2.5692,2.569,2.5661,2.5724,2.5724,2.5724,2.5724,0,2.4152,2.4217,2.4392,2.4447,2.4524,2.4649,2.4722,2.4809,2.4919,2.4994,2.5096,2.5165,2.5309,2.5395,2.5483,2.5575,2.5602,2.5654,2.5677,2.5647,2.564,2.5687,2.569,2.5724,2.5724,2.5724,2.5724,0,2.4069,2.4188,2.4294,2.4457,2.45,2.4549,2.469,2.4749,2.4841,2.4935,2.4965,2.5109,2.5217,2.5337,2.5484,2.5544,2.563,2.5662,2.5589,2.5602,2.5611,2.5609,2.5613,2.5621,2.5674,2.5674,2.5673,0,2.4052,2.4105,2.4274,2.4333,2.4407,2.4499,2.4569,2.4695,2.4764,2.4909,2.4951,2.5066,2.5165,2.5332,2.545,2.5564,2.5601,2.5595,2.5619,2.5587,2.5605,2.5601,2.5608,2.5588,2.5587,2.5586,2.5585,0,2.401,2.4067,2.4164,2.4282,2.4363,2.4462,2.4565,2.4607,2.4753,2.4826,2.4937,2.5014,2.5165,2.5279,2.5408,2.5488,2.5562,2.5576,2.5586,2.5556,2.5513,2.554,2.5573,2.5576,2.5577,2.5578,2.5578,2.5578,2.3962,2.4015,2.4144,2.4249,2.434,2.4435,2.4499,2.46,2.4695,2.4829,2.4897,2.5008,2.5133,2.5313,2.5392,2.5481,2.5505,2.5518,2.5522,2.5524,2.5517,2.5496,2.5505,2.5505,2.5506,2.5506,2.5506,0,2.3928,2.4016,2.4112,2.4254,2.4337,2.4399,2.4517,2.4583,2.468,2.479,2.4886,2.5015,2.5127,2.5255,2.5375,2.5422,2.5459,2.5449,2.5448,2.5466,2.5487,2.5468,2.5418,2.5418,2.5418,2.5418,2.5418,2.5418,2.392,2.4015,2.4087,2.4229,2.4318,2.4428,2.4491,2.4579,2.4668,2.4808,2.4902,2.4985,2.5103,2.5233,2.5338,2.5373,2.5414,2.5395,2.5439,2.5457,2.5464,2.5471,2.5455,2.5402,2.5402,2.5412,2.5412,2.5412]}]]